Location: C.E.K. Mees Observatory
(42.7003°N, 77.4088°W)
Time: 09:40:09
(UTC-05:00)

X-37B - Visible Passes

Search period start: 27 November 2020 00:00
Search period end: 07 December 2020 00:00
Orbit: 384 x 389 km, 45.0° (Epoch: 12 November)

Date Brightness Start Highest point End Pass type
(mag) Time Alt. Az. Time Alt. Az. Time Alt. Az.
27 Nov 2.3 17:41:14 10° SSW 17:43:43 22° SSE 17:45:13 16° ESE visible
27 Nov 3.8 19:16:55 10° WSW 19:17:30 14° WSW 19:17:30 14° WSW visible
28 Nov 0.6 18:18:24 10° WSW 18:21:32 61° SSE 18:21:38 61° SE visible
29 Nov 1.6 17:20:05 10° SW 17:23:02 36° SSE 17:25:44 12° E visible
29 Nov 2.8 18:56:25 10° W 18:58:00 26° W 18:58:00 26° W visible
30 Nov 0.5 17:57:47 10° WSW 18:00:58 88° NNW 18:02:04 37° ENE visible
01 Dec 1.6 18:35:58 10° W 18:38:22 42° NW 18:38:22 42° NW visible
02 Dec 0.7 17:37:17 10° W 17:40:26 65° N 17:42:25 21° ENE visible
02 Dec 3.8 19:14:08 10° WNW 19:14:41 14° WNW 19:14:41 14° WNW visible
03 Dec 0.8 18:15:30 10° WNW 18:18:37 53° N 18:18:44 52° NNE visible
04 Dec 0.9 17:16:50 10° W 17:19:57 55° N 17:22:49 12° ENE visible
04 Dec 2.8 18:53:36 10° WNW 18:55:05 25° WNW 18:55:05 25° WNW visible
05 Dec 0.7 17:55:00 10° WNW 17:58:08 58° N 17:59:14 35° ENE visible
06 Dec 1.1 18:33:04 10° WNW 18:35:43 58° W 18:35:43 58° W visible
